Regional Weather Roundup
Issued by NWS Spokane, WA

Home | Current Version | Previous Version | Text Only | Print | Product List | Glossary On
Versions: 1 2 3 4 5 6 7 8 9 10 11 12 13 14 15 16 17 18 19 20 21 22 23 24 25 26 27 28 29 30 31 32 33 34 35 36 37 38 39 40 41 42 43 44 45 46 47 48 49 50
000
NZUS01 KOTX 260310
RWROTX
EASTERN WASHINGTON/NORTHERN IDAHO ROUNDUP
NATIONAL WEATHER SERVICE, SPOKANE WA
800 PM PDT MON MAY 25 2015

Note: "fair" indicated few or no clouds below 12,000 feet with no
significant weather and/or obstructions to visibility.

...NORTHEAST WASHINGTON AND NORTHERN IDAHO PANHANDLE...

CITY           SKY/WX    TMP DP  RH WIND       PRES   REMARKS
SPOKANE INTL   MOCLDY    57  47  69 CALM      29.87S
SPOKANE DOWNTO CLOUDY    59  52  77 W3        29.87S
COEUR D ALENE  MOCLDY    61  52  72 N3        29.87R
DEER PARK      MOCLDY    60  52  74 NE7       29.88S
SANDPOINT      CLOUDY    61  50  67 N3        29.87S
BONNERS FERRY  FAIR      59  48  67 CALM      29.87F

...SOUTHEAST WASHINGTON AND SOUTHERN IDAHO PANHANDLE...

CITY           SKY/WX    TMP DP  RH WIND       PRES   REMARKS
WALLA WALLA    CLEAR     72  47  40 SE5       29.84S
PULLMAN/MOSCOW PTCLDY    61  47  59 W3        29.89S
LEWISTON       CLOUDY    70  45  40 NE3       29.84S
LOWELL           N/A     59  56  89 CALM      29.89R

...COLUMBIA BASIN...

CITY           SKY/WX    TMP DP  RH WIND       PRES   REMARKS
EPHRATA        CLOUDY    66  47  50 NW14G22   29.84R
MOSES LAKE     CLOUDY    69  46  43 E8        29.85R
TRI CITIES     LGT RAIN  63  57  81 N12       29.83R
HERMISTON      CLOUDY    72  47  40 SE7       29.81R
PENDLETON      PTCLDY    63  48  58 N8        29.84S

...EAST SLOPES CASCADES...

CITY           SKY/WX    TMP DP  RH WIND       PRES   REMARKS
THE DALLES     CLEAR     65  48  54 NW16G23   29.88R
YAKIMA         PTCLDY    71  48  43 W8        29.84S
ELLENSBURG     PTCLDY    64  43  46 NW20G29   29.88R
WENATCHEE      MOCLDY    71  41  33 NW15      29.85R
OMAK           CLOUDY    63  46  54 W5        29.87R

...SOUTHERN BRITISH COLUMBIA...

CITY           SKY/WX    TMP DP  RH WIND       PRES   REMARKS
PENTICTON      MOCLDY    66  46  48 NW6       29.87R
CASTLEGAR      MOCLDY    61  50  67 S5        29.88R
CRANBROOK      MOCLDY    59  45  58 N2        29.90R

...WESTERN MONTANA...

CITY           SKY/WX    TMP DP  RH WIND       PRES   REMARKS
MISSOULA       CLOUDY    55  49  80 CALM      29.94S

...NEIGHBORING CITIES...

CITY           SKY/WX    TMP DP  RH WIND       PRES   REMARKS
SEATTLE        CLOUDY    58  50  75 S3        30.02R
CALGARY        CLOUDY    63  41  45 W8        29.88R



USA.gov is the U.S. government's official web portal to all federal, state and local government web resources and services.